Location: Joffre
(52.3362°N, 113.5373°W)
Time: 14:50:18
(UTC+00:00)

Envisat - Pass Details

Date: 06 December 2021
Orbit: 764 x 766 km, 98.2° (Epoch: 28 January)

Event Time Altitude Azimuth Distance (km) Brightness Sun altitude
Rises 00:33:58 0° 197° (SSW) 3,222 6.9 -10.3°
Reaches altitude 10° 00:36:35 10° 210° (SSW) 2,301 6.3 -10.6°
Maximum altitude 00:40:52 27° 267° (W) 1,437 5.3 -11.2°
Drops below altitude 10° 00:45:12 10° 326° (NW) 2,316 5.7 -11.8°
Sets 00:47:52 0° 338° (NNW) 3,248 6.3 -12.2°
